RYR18RG EIDW-LFBH

Flight info

Callsign RYR18RG
Flight time 1h 22m
Altitude 39000
Route PESIT4E PESIT DCT BAKUR DCT GUBJE DCT GISOK DCT TACQI DCT MANIG DCT BADUR/N0453F310 DCT KORER UM616 NTS A25 LUSON
Aircraft B738/M-SDE2E3FGHIRWXY/LB1

Departure

Time 2026-04-30 12:18
Airport Dublin Airport (EIDW)

Arrival

Time 2026-04-30 13:40
Airport La Rochelle Île de Ré Airport (LFBH)
Time Latitude Longitude Altitude Speed Heading
2026-04-30 11:41 53.43127 -6.25088 210 ft 0 kts 185°
2026-04-30 12:01 53.43140 -6.25086 210 ft 4 kts 185°
2026-04-30 12:02 53.43167 -6.25081 210 ft 4 kts 187°
2026-04-30 12:02 53.43194 -6.25074 210 ft 4 kts 196°
2026-04-30 12:02 53.43216 -6.25056 218 ft 4 kts 238°
2026-04-30 12:02 53.43219 -6.25037 210 ft 1 kts 275°
2026-04-30 12:03 53.43219 -6.25034 210 ft 2 kts 275°
2026-04-30 12:03 53.43219 -6.25033 210 ft 0 kts 275°
2026-04-30 12:06 53.43219 -6.25034 210 ft 0 kts 275°
2026-04-30 12:06 53.43220 -6.25049 214 ft 3 kts 275°
2026-04-30 12:06 53.43223 -6.25122 210 ft 9 kts 275°
2026-04-30 12:07 53.43228 -6.25203 210 ft 3 kts 275°
2026-04-30 12:07 53.43230 -6.25239 216 ft 3 kts 275°
2026-04-30 12:07 53.43231 -6.25273 210 ft 3 kts 272°
2026-04-30 12:07 53.43229 -6.25303 219 ft 3 kts 257°
2026-04-30 12:08 53.43222 -6.25331 210 ft 3 kts 248°
2026-04-30 12:08 53.43215 -6.25363 210 ft 4 kts 248°
2026-04-30 12:08 53.43191 -6.25451 210 ft 12 kts 241°
2026-04-30 12:08 53.43118 -6.25478 210 ft 12 kts 159°
2026-04-30 12:09 53.43045 -6.25425 214 ft 11 kts 156°
2026-04-30 12:09 53.42976 -6.25375 213 ft 10 kts 156°
2026-04-30 12:09 53.42936 -6.25357 217 ft 5 kts 185°
2026-04-30 12:09 53.42908 -6.25382 213 ft 5 kts 220°
2026-04-30 12:10 53.42886 -6.25419 210 ft 4 kts 226°
2026-04-30 12:10 53.42865 -6.25456 210 ft 4 kts 225°
2026-04-30 12:10 53.42842 -6.25495 220 ft 5 kts 226°
2026-04-30 12:10 53.42793 -6.25579 222 ft 17 kts 226°
2026-04-30 12:11 53.42698 -6.25733 210 ft 18 kts 212°
2026-04-30 12:11 53.42584 -6.25690 212 ft 17 kts 161°
2026-04-30 12:11 53.42494 -6.25765 210 ft 15 kts 225°
2026-04-30 12:11 53.42422 -6.25886 219 ft 14 kts 225°
2026-04-30 12:12 53.42356 -6.26001 215 ft 13 kts 226°
2026-04-30 12:12 53.42295 -6.26114 214 ft 13 kts 234°
2026-04-30 12:12 53.42272 -6.26262 215 ft 15 kts 267°
2026-04-30 12:12 53.42273 -6.26438 210 ft 15 kts 274°
2026-04-30 12:13 53.42283 -6.26609 210 ft 14 kts 276°
2026-04-30 12:13 53.42293 -6.26781 210 ft 16 kts 275°
2026-04-30 12:13 53.42305 -6.27000 210 ft 21 kts 275°
2026-04-30 12:13 53.42318 -6.27235 210 ft 19 kts 275°
2026-04-30 12:14 53.42330 -6.27456 210 ft 19 kts 275°
2026-04-30 12:14 53.42342 -6.27671 210 ft 18 kts 275°
2026-04-30 12:14 53.42353 -6.27879 217 ft 18 kts 275°
2026-04-30 12:14 53.42364 -6.28076 210 ft 17 kts 275°
2026-04-30 12:15 53.42375 -6.28269 210 ft 16 kts 275°
2026-04-30 12:15 53.42385 -6.28455 210 ft 16 kts 275°
2026-04-30 12:15 53.42395 -6.28633 210 ft 15 kts 275°
2026-04-30 12:15 53.42404 -6.28804 210 ft 14 kts 275°
2026-04-30 12:16 53.42410 -6.28968 214 ft 14 kts 269°
2026-04-30 12:16 53.42357 -6.29072 213 ft 12 kts 199°
2026-04-30 12:16 53.42278 -6.29068 209 ft 11 kts 171°
2026-04-30 12:16 53.42237 -6.28983 217 ft 10 kts 86°
2026-04-30 12:17 53.42237 -6.28909 209 ft 0 kts 95°
2026-04-30 12:17 53.42228 -6.28763 210 ft 41 kts 95°
2026-04-30 12:17 53.42179 -6.27857 211 ft 113 kts 95°
2026-04-30 12:18 53.42085 -6.26245 372 ft 154 kts 95°
2026-04-30 12:18 53.41983 -6.24489 1236 ft 149 kts 94°
2026-04-30 12:18 53.41886 -6.22729 1941 ft 157 kts 94°
2026-04-30 12:18 53.41785 -6.20958 2877 ft 148 kts 96°
2026-04-30 12:19 53.41694 -6.19261 3823 ft 147 kts 98°
2026-04-30 12:19 53.41589 -6.17404 4133 ft 178 kts 100°
2026-04-30 12:19 53.41468 -6.15186 4362 ft 205 kts 100°
2026-04-30 12:19 53.41330 -6.12648 4564 ft 233 kts 99°
2026-04-30 12:20 53.41189 -6.10102 5077 ft 245 kts 99°
2026-04-30 12:20 53.41027 -6.07193 5761 ft 255 kts 99°
2026-04-30 12:20 53.40808 -6.04199 6423 ft 262 kts 109°
2026-04-30 12:20 53.39939 -6.01565 7200 ft 259 kts 136°
2026-04-30 12:21 53.38463 -5.99899 8024 ft 259 kts 159°
2026-04-30 12:21 53.36702 -5.99385 8727 ft 266 kts 180°
2026-04-30 12:21 53.34853 -5.99807 9096 ft 270 kts 188°
2026-04-30 12:21 53.33004 -6.00390 9141 ft 270 kts 188°
2026-04-30 12:22 53.31152 -6.00973 9279 ft 272 kts 188°
2026-04-30 12:22 53.29282 -6.01546 10041 ft 273 kts 187°
2026-04-30 12:22 53.27421 -6.02267 10750 ft 282 kts 193°
2026-04-30 12:22 53.25467 -6.03285 10939 ft 306 kts 194°
2026-04-30 12:23 53.23364 -6.04411 11127 ft 328 kts 194°
2026-04-30 12:23 53.21166 -6.05561 11519 ft 340 kts 194°
2026-04-30 12:23 53.18875 -6.06621 12175 ft 342 kts 187°
2026-04-30 12:23 53.16520 -6.07108 12910 ft 341 kts 182°
2026-04-30 12:24 53.14139 -6.07429 13624 ft 345 kts 181°
2026-04-30 12:24 53.11737 -6.07685 14352 ft 346 kts 176°
2026-04-30 12:24 53.09369 -6.07061 15083 ft 346 kts 163°
2026-04-30 12:24 53.07039 -6.05992 15843 ft 348 kts 163°
2026-04-30 12:25 53.04727 -6.04900 16524 ft 352 kts 162°
2026-04-30 12:25 53.02364 -6.03785 17206 ft 355 kts 162°
2026-04-30 12:25 52.99975 -6.02670 17848 ft 358 kts 162°
2026-04-30 12:25 52.97568 -6.01556 18506 ft 361 kts 162°
2026-04-30 12:26 52.95138 -6.00441 19132 ft 364 kts 163°
2026-04-30 12:26 52.92683 -5.99322 19706 ft 368 kts 163°
2026-04-30 12:26 52.90200 -5.98194 20231 ft 373 kts 163°
2026-04-30 12:26 52.87688 -5.97056 20782 ft 376 kts 163°
2026-04-30 12:27 52.85192 -5.95928 21334 ft 379 kts 163°
2026-04-30 12:27 52.82636 -5.94775 21852 ft 382 kts 163°
2026-04-30 12:27 52.80064 -5.93616 22348 ft 385 kts 163°
2026-04-30 12:27 52.77469 -5.92449 22822 ft 388 kts 163°
2026-04-30 12:28 52.74847 -5.91271 23120 ft 393 kts 163°
2026-04-30 12:28 52.72210 -5.90088 23137 ft 392 kts 163°
2026-04-30 12:28 52.69580 -5.88910 23145 ft 392 kts 163°
2026-04-30 12:28 52.66949 -5.87733 23152 ft 392 kts 163°
2026-04-30 12:29 52.64353 -5.86571 23153 ft 392 kts 163°
2026-04-30 12:29 52.61717 -5.85393 23151 ft 393 kts 163°
2026-04-30 12:29 52.59078 -5.84215 23146 ft 393 kts 163°
2026-04-30 12:29 52.56437 -5.83039 23142 ft 393 kts 163°
2026-04-30 12:30 52.53798 -5.81864 23139 ft 393 kts 163°
2026-04-30 12:30 52.51156 -5.80690 23138 ft 393 kts 163°
2026-04-30 12:30 52.48521 -5.79519 23138 ft 393 kts 163°
2026-04-30 12:30 52.45882 -5.78349 23142 ft 393 kts 163°
2026-04-30 12:31 52.43279 -5.77195 23139 ft 392 kts 163°
2026-04-30 12:31 52.40645 -5.76031 23137 ft 392 kts 163°
2026-04-30 12:31 52.38009 -5.74822 23192 ft 396 kts 162°
2026-04-30 12:31 52.35360 -5.73515 23637 ft 399 kts 161°
2026-04-30 12:32 52.32707 -5.72188 24167 ft 399 kts 161°
2026-04-30 12:32 52.30046 -5.70867 24639 ft 401 kts 161°
2026-04-30 12:32 52.27361 -5.69546 25041 ft 404 kts 162°
2026-04-30 12:32 52.24657 -5.68217 25421 ft 408 kts 161°
2026-04-30 12:33 52.22032 -5.66625 25829 ft 409 kts 156°
2026-04-30 12:33 52.19397 -5.64834 26206 ft 411 kts 156°
2026-04-30 12:33 52.16748 -5.63019 26551 ft 415 kts 156°
2026-04-30 12:33 52.14081 -5.61202 26910 ft 417 kts 156°
2026-04-30 12:34 52.11395 -5.59388 27257 ft 420 kts 157°
2026-04-30 12:34 52.08688 -5.57570 27591 ft 422 kts 157°
2026-04-30 12:34 52.05965 -5.55747 27936 ft 424 kts 157°
2026-04-30 12:34 52.03243 -5.53875 28251 ft 426 kts 155°
2026-04-30 12:35 52.00594 -5.51842 28532 ft 428 kts 154°
2026-04-30 12:35 51.97909 -5.49713 28810 ft 431 kts 153°
2026-04-30 12:35 51.95215 -5.47558 29107 ft 433 kts 153°
2026-04-30 12:35 51.92518 -5.45404 29461 ft 432 kts 154°
2026-04-30 12:36 51.89820 -5.43261 29869 ft 431 kts 154°
2026-04-30 12:36 51.87128 -5.41134 30279 ft 430 kts 154°
2026-04-30 12:36 51.84443 -5.39028 30656 ft 429 kts 154°
2026-04-30 12:36 51.81760 -5.36924 31047 ft 428 kts 154°
2026-04-30 12:37 51.79129 -5.34863 31462 ft 425 kts 154°
2026-04-30 12:37 51.76470 -5.32785 31816 ft 425 kts 154°
2026-04-30 12:37 51.73812 -5.30711 32142 ft 424 kts 154°
2026-04-30 12:37 51.71159 -5.28645 32523 ft 422 kts 154°
2026-04-30 12:38 51.68518 -5.26590 32906 ft 421 kts 154°
2026-04-30 12:38 51.65885 -5.24542 33216 ft 420 kts 154°
2026-04-30 12:38 51.63252 -5.22497 33552 ft 419 kts 154°
2026-04-30 12:38 51.60632 -5.20466 33911 ft 417 kts 154°
2026-04-30 12:39 51.58021 -5.18443 34213 ft 417 kts 154°
2026-04-30 12:39 51.55442 -5.16447 34445 ft 418 kts 154°
2026-04-30 12:39 51.52814 -5.14419 34614 ft 420 kts 154°
2026-04-30 12:39 51.50251 -5.12157 34841 ft 421 kts 147°
2026-04-30 12:40 51.47912 -5.09337 35112 ft 421 kts 140°
2026-04-30 12:40 51.45726 -5.06222 35347 ft 421 kts 139°
2026-04-30 12:40 51.43540 -5.03083 35535 ft 423 kts 139°
2026-04-30 12:40 51.41347 -4.99938 35754 ft 423 kts 139°
2026-04-30 12:41 51.39180 -4.96849 36009 ft 423 kts 139°
2026-04-30 12:41 51.36977 -4.93725 36211 ft 424 kts 140°
2026-04-30 12:41 51.34761 -4.90602 36384 ft 425 kts 140°
2026-04-30 12:41 51.32539 -4.87478 36604 ft 426 kts 140°
2026-04-30 12:42 51.30318 -4.84357 36850 ft 425 kts 140°
2026-04-30 12:42 51.28112 -4.81258 37248 ft 419 kts 140°
2026-04-30 12:42 51.25930 -4.78205 37593 ft 416 kts 140°
2026-04-30 12:42 51.23743 -4.75150 37674 ft 419 kts 140°
2026-04-30 12:43 51.19356 -4.69034 37948 ft 422 kts 140°
2026-04-30 12:43 51.17148 -4.65959 38166 ft 421 kts 140°
2026-04-30 12:43 51.14937 -4.62882 38304 ft 423 kts 140°
2026-04-30 12:44 51.12721 -4.59804 38427 ft 424 kts 140°
2026-04-30 12:44 51.10491 -4.56709 38528 ft 426 kts 140°
2026-04-30 12:44 51.08257 -4.53610 38702 ft 426 kts 140°
2026-04-30 12:44 51.06024 -4.50523 38892 ft 425 kts 140°
2026-04-30 12:45 51.03752 -4.47508 38997 ft 426 kts 146°
2026-04-30 12:45 51.01317 -4.44947 39077 ft 427 kts 149°
2026-04-30 12:45 50.96258 -4.39951 39087 ft 429 kts 149°
2026-04-30 12:46 50.91184 -4.34971 39081 ft 429 kts 149°
2026-04-30 12:46 50.86131 -4.29977 39093 ft 428 kts 149°
2026-04-30 12:47 50.81116 -4.25004 39094 ft 428 kts 149°
2026-04-30 12:47 50.76064 -4.20010 39093 ft 428 kts 149°
2026-04-30 12:48 50.71013 -4.15020 39092 ft 429 kts 149°
2026-04-30 12:48 50.65947 -4.10032 39082 ft 429 kts 149°
2026-04-30 12:49 50.60879 -4.05054 39088 ft 430 kts 149°
2026-04-30 12:49 50.55829 -4.00107 39087 ft 431 kts 149°
2026-04-30 12:50 50.50737 -3.95133 39092 ft 431 kts 149°
2026-04-30 12:50 50.45635 -3.90164 39093 ft 432 kts 149°
2026-04-30 12:51 50.40522 -3.85194 39091 ft 433 kts 149°
2026-04-30 12:51 50.35430 -3.80249 39091 ft 434 kts 149°
2026-04-30 12:52 50.30285 -3.75278 39085 ft 435 kts 149°
2026-04-30 12:52 50.25132 -3.70312 39081 ft 435 kts 149°
2026-04-30 12:53 50.19972 -3.65350 39081 ft 436 kts 149°
2026-04-30 12:53 50.14848 -3.60425 39080 ft 435 kts 149°
2026-04-30 12:54 50.09691 -3.55490 39083 ft 435 kts 149°
2026-04-30 12:54 50.04536 -3.50573 39083 ft 434 kts 149°
2026-04-30 12:55 49.99385 -3.45668 39075 ft 434 kts 149°
2026-04-30 12:55 49.94271 -3.40810 39067 ft 434 kts 149°
2026-04-30 12:56 49.89123 -3.35932 39080 ft 433 kts 149°
2026-04-30 12:56 49.83975 -3.31063 39085 ft 433 kts 149°
2026-04-30 12:57 49.78726 -3.26504 39083 ft 433 kts 158°
2026-04-30 12:57 49.72931 -3.24103 39090 ft 432 kts 170°
2026-04-30 12:58 49.67046 -3.22468 39075 ft 433 kts 170°
2026-04-30 12:58 49.61118 -3.20809 39073 ft 434 kts 169°
2026-04-30 12:59 49.55178 -3.19104 39077 ft 435 kts 169°
2026-04-30 12:59 49.49232 -3.17380 39071 ft 435 kts 169°
2026-04-30 13:00 49.43281 -3.15655 39074 ft 435 kts 169°
2026-04-30 13:00 49.37361 -3.13946 39066 ft 436 kts 169°
2026-04-30 13:01 49.31391 -3.12228 39066 ft 437 kts 169°
2026-04-30 13:01 49.25413 -3.10512 39063 ft 437 kts 169°
2026-04-30 13:02 49.19433 -3.08798 39056 ft 437 kts 169°
2026-04-30 13:02 49.13495 -3.07101 39056 ft 437 kts 169°
2026-04-30 13:03 49.07529 -3.05401 39049 ft 436 kts 169°
2026-04-30 13:03 49.01569 -3.03701 39046 ft 435 kts 169°
2026-04-30 13:04 48.95620 -3.02015 39045 ft 435 kts 169°
2026-04-30 13:04 48.89710 -3.00346 39049 ft 435 kts 169°
2026-04-30 13:05 48.83760 -2.98664 39040 ft 435 kts 170°
2026-04-30 13:06 48.74818 -2.96145 39037 ft 436 kts 170°
2026-04-30 13:06 48.68921 -2.94285 39042 ft 436 kts 165°
2026-04-30 13:07 48.63094 -2.91687 39045 ft 437 kts 163°
2026-04-30 13:07 48.57269 -2.88985 39049 ft 438 kts 163°
2026-04-30 13:08 48.51427 -2.86335 39026 ft 439 kts 164°
2026-04-30 13:08 48.45560 -2.83721 39002 ft 440 kts 164°
2026-04-30 13:09 48.39722 -2.81139 39032 ft 440 kts 164°
2026-04-30 13:09 48.33846 -2.78546 39028 ft 441 kts 164°
2026-04-30 13:10 48.27952 -2.75952 39030 ft 442 kts 164°
2026-04-30 13:10 48.22052 -2.73358 39034 ft 442 kts 164°
2026-04-30 13:11 48.16155 -2.70773 39036 ft 442 kts 164°
2026-04-30 13:11 48.10287 -2.68207 39040 ft 442 kts 164°
2026-04-30 13:12 48.04383 -2.65631 39043 ft 442 kts 164°
2026-04-30 13:12 47.98467 -2.63055 38905 ft 445 kts 164°
2026-04-30 13:13 47.92523 -2.60473 38282 ft 443 kts 164°
2026-04-30 13:13 47.89571 -2.59192 37747 ft 440 kts 164°
2026-04-30 13:13 47.83745 -2.56672 36573 ft 438 kts 163°
2026-04-30 13:14 47.80819 -2.55408 35962 ft 437 kts 163°
2026-04-30 13:14 47.77903 -2.54149 35272 ft 437 kts 163°
2026-04-30 13:14 47.72063 -2.51538 33803 ft 439 kts 157°
2026-04-30 13:15 47.69343 -2.49509 33027 ft 438 kts 147°
2026-04-30 13:15 47.64784 -2.43937 32392 ft 418 kts 131°
2026-04-30 13:15 47.62876 -2.40663 32161 ft 423 kts 131°
2026-04-30 13:16 47.60954 -2.37311 31372 ft 429 kts 130°
2026-04-30 13:16 47.59029 -2.33952 30795 ft 426 kts 131°
2026-04-30 13:16 47.57111 -2.30629 30253 ft 422 kts 131°
2026-04-30 13:17 47.53317 -2.24116 29161 ft 414 kts 131°
2026-04-30 13:17 47.51438 -2.20913 28612 ft 410 kts 131°
2026-04-30 13:17 47.47747 -2.14638 27535 ft 404 kts 131°
2026-04-30 13:18 47.45913 -2.11526 26995 ft 400 kts 131°
2026-04-30 13:18 47.42277 -2.05367 25925 ft 395 kts 131°
2026-04-30 13:18 47.40478 -2.02319 25391 ft 392 kts 131°
2026-04-30 13:19 47.38692 -1.99299 24865 ft 390 kts 132°
2026-04-30 13:19 47.36912 -1.96294 24333 ft 387 kts 132°
2026-04-30 13:19 47.35147 -1.93319 23814 ft 385 kts 132°
2026-04-30 13:19 47.33381 -1.90343 23095 ft 387 kts 132°
2026-04-30 13:20 47.31633 -1.87396 22525 ft 386 kts 131°
2026-04-30 13:20 47.29874 -1.84429 21986 ft 383 kts 131°
2026-04-30 13:20 47.28128 -1.81487 21459 ft 380 kts 131°
2026-04-30 13:20 47.26399 -1.78574 20945 ft 376 kts 131°
2026-04-30 13:21 47.24680 -1.75684 20426 ft 373 kts 131°
2026-04-30 13:21 47.22977 -1.72822 19916 ft 370 kts 131°
2026-04-30 13:21 47.21289 -1.69990 19416 ft 367 kts 131°
2026-04-30 13:22 47.17925 -1.64422 18410 ft 361 kts 135°
2026-04-30 13:22 47.15990 -1.62178 17915 ft 359 kts 147°
2026-04-30 13:22 47.11425 -1.59313 16864 ft 357 kts 163°
2026-04-30 13:23 47.09037 -1.58369 16364 ft 355 kts 164°
2026-04-30 13:23 47.04296 -1.56550 15388 ft 348 kts 164°
2026-04-30 13:24 46.99627 -1.54732 14422 ft 345 kts 164°
2026-04-30 13:24 46.95054 -1.52933 13484 ft 340 kts 164°
2026-04-30 13:25 46.90518 -1.51141 12554 ft 335 kts 165°
2026-04-30 13:25 46.86050 -1.49375 11618 ft 330 kts 165°
2026-04-30 13:26 46.79527 -1.46805 10667 ft 313 kts 165°
2026-04-30 13:26 46.75463 -1.45209 10413 ft 292 kts 165°
2026-04-30 13:27 46.71666 -1.43715 10179 ft 274 kts 165°
2026-04-30 13:28 46.66283 -1.41601 9491 ft 264 kts 165°
2026-04-30 13:28 46.62776 -1.40222 8936 ft 263 kts 165°
2026-04-30 13:28 46.60991 -1.39530 8633 ft 266 kts 165°
2026-04-30 13:29 46.57443 -1.38113 8051 ft 262 kts 164°
2026-04-30 13:29 46.53947 -1.36696 7481 ft 260 kts 164°
2026-04-30 13:30 46.48713 -1.35481 6649 ft 255 kts 191°
2026-04-30 13:31 46.45308 -1.36639 6095 ft 253 kts 192°
2026-04-30 13:31 46.40224 -1.38365 5405 ft 243 kts 192°
2026-04-30 13:32 46.36995 -1.39447 5118 ft 232 kts 192°
2026-04-30 13:32 46.34021 -1.40448 4934 ft 209 kts 192°
2026-04-30 13:33 46.31330 -1.41347 4582 ft 188 kts 193°
2026-04-30 13:33 46.28985 -1.42644 4207 ft 174 kts 200°
2026-04-30 13:34 46.27881 -1.43299 4020 ft 170 kts 200°
2026-04-30 13:34 46.24612 -1.45204 3479 ft 169 kts 200°
2026-04-30 13:35 46.23528 -1.45820 3300 ft 169 kts 199°
2026-04-30 13:35 46.21311 -1.46167 2947 ft 164 kts 144°
2026-04-30 13:36 46.19943 -1.43570 2759 ft 159 kts 127°
2026-04-30 13:36 46.19329 -1.42273 2630 ft 155 kts 126°
2026-04-30 13:36 46.18670 -1.39362 2422 ft 157 kts 103°
2026-04-30 13:37 46.18500 -1.37803 2341 ft 155 kts 98°
2026-04-30 13:37 46.18383 -1.34803 2090 ft 148 kts 96°
2026-04-30 13:38 46.18290 -1.31838 1872 ft 148 kts 96°
2026-04-30 13:38 46.18246 -1.30388 1686 ft 144 kts 96°
2026-04-30 13:38 46.18162 -1.27612 1233 ft 133 kts 96°
2026-04-30 13:39 46.18080 -1.24911 830 ft 134 kts 96°
2026-04-30 13:39 46.18004 -1.22260 392 ft 129 kts 96°
2026-04-30 13:40 46.17963 -1.20976 156 ft 128 kts 96°
2026-04-30 13:40 46.17920 -1.19773 76 ft 108 kts 95°
2026-04-30 13:40 46.17900 -1.18997 73 ft 46 kts 91°
2026-04-30 13:40 46.17891 -1.18566 76 ft 40 kts 92°
2026-04-30 13:41 46.17883 -1.18292 76 ft 15 kts 92°
2026-04-30 13:41 46.17867 -1.18211 76 ft 4 kts 186°
2026-04-30 13:41 46.17865 -1.18245 76 ft 9 kts 286°
2026-04-30 13:41 46.17886 -1.18417 76 ft 26 kts 272°
2026-04-30 13:42 46.17896 -1.18732 75 ft 35 kts 272°
2026-04-30 13:42 46.17905 -1.19051 73 ft 30 kts 272°
2026-04-30 13:42 46.17910 -1.19475 71 ft 12 kts 235°
2026-04-30 13:43 46.17831 -1.19494 68 ft 12 kts 182°
2026-04-30 13:43 46.17751 -1.19499 67 ft 11 kts 184°
2026-04-30 13:43 46.17692 -1.19465 69 ft 6 kts 115°
2026-04-30 13:43 46.17690 -1.19402 69 ft 6 kts 91°
2026-04-30 13:44 46.17687 -1.19328 76 ft 7 kts 109°
2026-04-30 13:44 46.17647 -1.19321 76 ft 4 kts 219°
2026-04-30 13:44 46.17644 -1.19336 76 ft 0 kts 268°
2026-04-30 13:44 46.17647 -1.19350 76 ft 0 kts 299°
2026-04-30 13:45 46.17655 -1.19361 76 ft 0 kts 316°